| time (UTC) | temp C | wind direction | speed KPH | gust KPH | rain 1hr cm | rain 24hr cm | rain mn cm | humidity % | barometer mb |
| 20260903165544 | 23 | 154 | 3.2 | 20.9 | 0.00 | 0.00 | 0.00 | 19 | 1020.9 |
| 20260903165040 | 23 | 173 | 6.4 | 8.0 | 0.00 | 0.00 | 0.00 | 19 | 1020.8 |
| 20260903164535 | 23 | 139 | 9.7 | 12.9 | 0.00 | 0.00 | 0.00 | 18 | 1020.6 |
| 20260903164031 | 23 | 101 | 3.2 | 14.5 | 0.00 | 0.00 | 0.00 | 18 | 1020.3 |
| 20260903163526 | 23 | 113 | 8.0 | 9.7 | 0.00 | 0.00 | 0.00 | 19 | 1020.8 |
| 20260903163022 | 23 | 108 | 11.3 | 22.5 | 0.00 | 0.00 | 0.00 | 19 | 1020.5 |
| 20260903162518 | 23 | 175 | 0.0 | 17.7 | 0.00 | 0.00 | 0.00 | 19 | 1020.8 |
| 20260903162013 | 23 | 103 | 6.4 | 16.1 | 0.00 | 0.00 | 0.00 | 18 | 1020.6 |
| 20260903161508 | 23 | 137 | 6.4 | 9.7 | 0.00 | 0.00 | 0.00 | 20 | 1020.8 |
| 20260903161005 | 23 | 129 | 3.2 | 8.0 | 0.00 | 0.00 | 0.00 | 20 | 1020.4 |
| 20260903160503 | 22 | 161 | 0.0 | 9.7 | 0.00 | 0.00 | 0.00 | 22 | 1020.6 |
| 20260903160003 | 22 | 176 | 3.2 | 24.1 | 0.00 | 0.00 | 0.00 | 19 | 1020.8 |
| 20260903155457 | 22 | 134 | 16.1 | 16.1 | 0.00 | 0.00 | 0.00 | 19 | 1020.4 |
| 20260903154953 | 22 | 0 | 1.6 | 19.3 | 0.00 | 0.00 | 0.00 | 18 | 1020.4 |
| 20260903154448 | 22 | 135 | 8.0 | 20.9 | 0.00 | 0.00 | 0.00 | 19 | 1020.6 |
| 20260903153944 | 22 | 148 | 8.0 | 16.1 | 0.00 | 0.00 | 0.00 | 19 | 1020.6 |
| 20260903153440 | 22 | 117 | 3.2 | 16.1 | 0.00 | 0.00 | 0.00 | 21 | 1020.5 |
| 20260903152936 | 22 | 161 | 3.2 | 14.5 | 0.00 | 0.00 | 0.00 | 22 | 1020.5 |
| 20260903152432 | 22 | 185 | 3.2 | 24.1 | 0.00 | 0.00 | 0.00 | 22 | 1020.6 |
| 20260903151927 | 22 | 160 | 1.6 | 4.8 | 0.00 | 0.00 | 0.00 | 23 | 1020.8 |
| 20260903151427 | 21 | 180 | 0.0 | 11.3 | 0.00 | 0.00 | 0.00 | 23 | 1020.9 |
| 20260903150921 | 21 | 158 | 0.0 | 9.7 | 0.00 | 0.00 | 0.00 | 23 | 1021.0 |
| 20260903150417 | 21 | 144 | 3.2 | 16.1 | 0.00 | 0.00 | 0.00 | 21 | 1020.8 |
| 20260903145917 | 21 | 111 | 9.7 | 14.5 | 0.00 | 0.00 | 0.00 | 22 | 1020.8 |
| 20260903145412 | 21 | 115 | 3.2 | 6.4 | 0.00 | 0.00 | 0.00 | 23 | 1020.8 |
| 20260903144912 | 21 | 122 | 6.4 | 9.7 | 0.00 | 0.00 | 0.00 | 23 | 1020.6 |
| 20260903144406 | 20 | 203 | 3.2 | 8.0 | 0.00 | 0.00 | 0.00 | 26 | 1020.8 |
| 20260903143901 | 17 | 81 | 0.0 | 1.6 | 0.00 | 0.00 | 0.00 | 35 | 1020.5 |
| 20260903143359 | 15 | 41 | 3.2 | 3.2 | 0.00 | 0.00 | 0.00 | 38 | 1020.4 |
| 20260903142859 | 15 | 352 | 0.0 | 0.0 | 0.00 | 0.00 | 0.00 | 39 | 1020.5 |
| 20260903142354 | 15 | 0 | 0.0 | 1.6 | 0.00 | 0.00 | 0.00 | 39 | 1020.5 |
| 20260903141850 | 15 | 81 | 0.0 | 1.6 | 0.00 | 0.00 | 0.00 | 39 | 1020.5 |
| 20260903141346 | 14 | 54 | 0.0 | 3.2 | 0.00 | 0.00 | 0.00 | 42 | 1020.5 |
| 20260903140841 | 13 | 26 | 1.6 | 3.2 | 0.00 | 0.00 | 0.00 | 41 | 1020.5 |
| 20260903140336 | 13 | 60 | 1.6 | 3.2 | 0.00 | 0.00 | 0.00 | 42 | 1020.5 |
| 20260903135832 | 13 | 31 | 4.8 | 4.8 | 0.00 | 0.00 | 0.00 | 44 | 1020.4 |
| 20260903135327 | 12 | 49 | 0.0 | 3.2 | 0.00 | 0.00 | 0.00 | 45 | 1020.5 |
| 20260903134826 | 12 | 24 | 3.2 | 4.8 | 0.00 | 0.00 | 0.00 | 45 | 1020.5 |
| 20260903134322 | 12 | 23 | 3.2 | 4.8 | 0.00 | 0.00 | 0.00 | 47 | 1020.5 |
| 20260903133820 | 12 | 20 | 1.6 | 3.2 | 0.00 | 0.00 | 0.00 | 43 | 1020.2 |
| 20260903133316 | 12 | 66 | 0.0 | 3.2 | 0.00 | 0.00 | 0.00 | 45 | 1020.1 |
| 20260903132815 | 12 | 6 | 0.0 | 3.2 | 0.00 | 0.00 | 0.00 | 43 | 1020.3 |
| 20260903132311 | 13 | 69 | 0.0 | 6.4 | 0.00 | 0.00 | 0.00 | 42 | 1020.2 |
| 20260903131806 | 13 | 23 | 0.0 | 4.8 | 0.00 | 0.00 | 0.00 | 41 | 1020.1 |
| 20260903131305 | 13 | 37 | 3.2 | 4.8 | 0.00 | 0.00 | 0.00 | 41 | 1020.0 |
| 20260903130800 | 13 | 78 | 0.0 | 4.8 | 0.00 | 0.00 | 0.00 | 38 | 1020.0 |
| 20260903130255 | 13 | 0 | 0.0 | 8.0 | 0.00 | 0.00 | 0.00 | 38 | 1019.8 |
| 20260903125753 | 12 | 32 | 0.0 | 4.8 | 0.00 | 0.00 | 0.00 | 44 | 1019.7 |
| 20260903125249 | 12 | 26 | 1.6 | 4.8 | 0.00 | 0.00 | 0.00 | 43 | 1019.8 |
| 20260903124748 | 12 | 26 | 0.0 | 4.8 | 0.00 | 0.00 | 0.00 | 41 | 1019.6 |
| 20260903124244 | 12 | 59 | 0.0 | 3.2 | 0.00 | 0.00 | 0.00 | 45 | 1019.7 |
| 20260903123742 | 12 | 60 | 3.2 | 4.8 | 0.00 | 0.00 | 0.00 | 42 | 1019.7 |
| 20260903123242 | 12 | 119 | 3.2 | 4.8 | 0.00 | 0.00 | 0.00 | 43 | 1020.1 |
| 20260903122740 | 12 | 126 | 4.8 | 4.8 | 0.00 | 0.00 | 0.00 | 42 | 1019.7 |
| 20260903122235 | 12 | 116 | 0.0 | 4.8 | 0.00 | 0.00 | 0.00 | 43 | 1019.7 |
| 20260903121734 | 12 | 60 | 1.6 | 3.2 | 0.00 | 0.00 | 0.00 | 45 | 1019.5 |
| 20260903121230 | 11 | 19 | 3.2 | 4.8 | 0.00 | 0.00 | 0.00 | 44 | 1019.7 |
| 20260903120730 | 11 | 21 | 3.2 | 4.8 | 0.00 | 0.00 | 0.00 | 46 | 1019.7 |
| 20260903120224 | 11 | 28 | 3.2 | 4.8 | 0.00 | 0.00 | 0.00 | 47 | 1019.7 |
| 20260903115723 | 12 | 53 | 4.8 | 4.8 | 0.00 | 0.00 | 0.00 | 47 | 1019.5 |
| 20260903115219 | 12 | 32 | 3.2 | 3.2 | 0.00 | 0.00 | 0.00 | 45 | 1019.8 |
| 20260903114718 | 12 | 22 | 4.8 | 4.8 | 0.00 | 0.00 | 0.00 | 42 | 1019.5 |
| 20260903114214 | 12 | 8 | 0.0 | 1.6 | 0.00 | 0.00 | 0.00 | 45 | 1019.7 |
| 20260903113708 | 12 | 32 | 4.8 | 4.8 | 0.00 | 0.00 | 0.00 | 42 | 1019.7 |
| 20260903113205 | 12 | 21 | 3.2 | 3.2 | 0.00 | 0.00 | 0.00 | 45 | 1019.7 |
| 20260903112700 | 12 | 60 | 1.6 | 3.2 | 0.00 | 0.00 | 0.00 | 46 | 1019.6 |
| 20260903112155 | 12 | 77 | 1.6 | 4.8 | 0.00 | 0.00 | 0.00 | 46 | 1019.7 |
| 20260903111654 | 12 | 30 | 3.2 | 3.2 | 0.00 | 0.00 | 0.00 | 46 | 1019.3 |
| 20260903111150 | 12 | 22 | 4.8 | 4.8 | 0.00 | 0.00 | 0.00 | 45 | 1019.6 |
| 20260903110646 | 12 | 60 | 0.0 | 1.6 | 0.00 | 0.00 | 0.00 | 45 | 1019.4 |
| 20260903110142 | 12 | 126 | 1.6 | 3.2 | 0.00 | 0.00 | 0.00 | 43 | 1019.6 |
| 20260903105631 | 13 | 24 | 3.2 | 4.8 | 0.00 | 0.00 | 0.00 | 43 | 1019.4 |
| 20260903105126 | 13 | 28 | 4.8 | 6.4 | 0.00 | 0.00 | 0.00 | 38 | 1019.5 |
| 20260903104625 | 13 | 13 | 4.8 | 4.8 | 0.00 | 0.00 | 0.00 | 41 | 1019.4 |
| 20260903104121 | 13 | 19 | 4.8 | 6.4 | 0.00 | 0.00 | 0.00 | 42 | 1019.5 |
| 20260903103616 | 13 | 66 | 1.6 | 4.8 | 0.00 | 0.00 | 0.00 | 39 | 1019.3 |
| 20260903103113 | 13 | 32 | 4.8 | 4.8 | 0.00 | 0.00 | 0.00 | 42 | 1019.5 |
| 20260903102608 | 14 | 6 | 0.0 | 3.2 | 0.00 | 0.00 | 0.00 | 38 | 1019.2 |
| 20260903102107 | 15 | 54 | 0.0 | 4.8 | 0.00 | 0.00 | 0.00 | 37 | 1018.9 |
| 20260903101607 | 15 | 31 | 4.8 | 4.8 | 0.00 | 0.00 | 0.00 | 35 | 1019.4 |
| 20260903101103 | 15 | 30 | 3.2 | 4.8 | 0.00 | 0.00 | 0.00 | 34 | 1019.3 |
| 20260903100602 | 16 | 20 | 0.0 | 3.2 | 0.00 | 0.00 | 0.00 | 30 | 1019.0 |
| 20260903095559 | 16 | 0 | 0.0 | 1.6 | 0.00 | 0.00 | 0.00 | 30 | 1019.2 |
| 20260903095054 | 16 | 352 | 0.0 | 1.6 | 0.00 | 0.00 | 0.00 | 28 | 1019.3 |
| 20260903094554 | 16 | 60 | 0.0 | 4.8 | 0.00 | 0.00 | 0.00 | 28 | 1019.2 |
| 20260903094050 | 16 | 7 | 1.6 | 3.2 | 0.00 | 0.00 | 0.00 | 28 | 1019.3 |
| 20260903093545 | 16 | 21 | 3.2 | 3.2 | 0.00 | 0.00 | 0.00 | 29 | 1018.9 |
| 20260903093040 | 16 | 320 | 3.2 | 3.2 | 0.00 | 0.00 | 0.00 | 29 | 1018.9 |
| 20260903092534 | 16 | 70 | 0.0 | 3.2 | 0.00 | 0.00 | 0.00 | 29 | 1018.9 |
| 20260903092029 | 17 | 29 | 1.6 | 3.2 | 0.00 | 0.00 | 0.00 | 32 | 1019.2 |
| 20260903091527 | 16 | 30 | 0.0 | 4.8 | 0.00 | 0.00 | 0.00 | 32 | 1019.0 |
| 20260903091026 | 16 | 90 | 0.0 | 3.2 | 0.00 | 0.00 | 0.00 | 34 | 1019.0 |
| 20260903090523 | 16 | 20 | 0.0 | 3.2 | 0.00 | 0.00 | 0.00 | 35 | 1019.0 |
| 20260903090021 | 16 | 99 | 0.0 | 3.2 | 0.00 | 0.00 | 0.00 | 36 | 1019.0 |
| 20260903085519 | 17 | 41 | 0.0 | 3.2 | 0.00 | 0.00 | 0.00 | 36 | 1018.8 |
| 20260903085015 | 17 | 98 | 0.0 | 6.4 | 0.00 | 0.00 | 0.00 | 34 | 1019.2 |
| 20260903084514 | 17 | 71 | 0.0 | 4.8 | 0.00 | 0.00 | 0.00 | 33 | 1019.3 |
| 20260903084008 | 17 | 68 | 3.2 | 3.2 | 0.00 | 0.00 | 0.00 | 33 | 1019.2 |
| 20260903083504 | 17 | 337 | 0.0 | 3.2 | 0.00 | 0.00 | 0.00 | 35 | 1019.2 |
| 20260903083004 | 18 | 7 | 1.6 | 1.6 | 0.00 | 0.00 | 0.00 | 33 | 1019.0 |
| 20260903082459 | 18 | 0 | 0.0 | 3.2 | 0.00 | 0.00 | 0.00 | 32 | 1019.2 |
| 20260903081954 | 19 | 145 | 4.8 | 4.8 | 0.00 | 0.00 | 0.00 | 30 | 1019.2 |
| 20260903081449 | 19 | 99 | 3.2 | 6.4 | 0.00 | 0.00 | 0.00 | 29 | 1018.9 |
| 20260903080945 | 20 | 165 | 0.0 | 4.8 | 0.00 | 0.00 | 0.00 | 30 | 1019.3 |
| 20260903080441 | 20 | 114 | 3.2 | 8.0 | 0.00 | 0.00 | 0.00 | 29 | 1018.7 |
| 20260903075937 | 20 | 120 | 0.0 | 6.4 | 0.00 | 0.00 | 0.00 | 31 | 1019.0 |
| 20260903075432 | 20 | 98 | 1.6 | 4.8 | 0.00 | 0.00 | 0.00 | 31 | 1018.9 |
| 20260903074927 | 20 | 101 | 4.8 | 6.4 | 0.00 | 0.00 | 0.00 | 31 | 1018.8 |
| 20260903074426 | 20 | 114 | 1.6 | 8.0 | 0.00 | 0.00 | 0.00 | 29 | 1018.8 |
| 20260903073921 | 20 | 156 | 3.2 | 4.8 | 0.00 | 0.00 | 0.00 | 26 | 1018.8 |
| 20260903073416 | 21 | 133 | 4.8 | 14.5 | 0.00 | 0.00 | 0.00 | 24 | 1018.6 |
| 20260903072912 | 21 | 143 | 8.0 | 14.5 | 0.00 | 0.00 | 0.00 | 25 | 1018.7 |
| 20260903072408 | 21 | 125 | 4.8 | 12.9 | 0.00 | 0.00 | 0.00 | 26 | 1018.8 |
| 20260903071905 | 21 | 118 | 4.8 | 9.7 | 0.00 | 0.00 | 0.00 | 24 | 1018.9 |
| 20260903071400 | 21 | 119 | 0.0 | 8.0 | 0.00 | 0.00 | 0.00 | 23 | 1018.7 |
| 20260903070856 | 21 | 121 | 6.4 | 11.3 | 0.00 | 0.00 | 0.00 | 22 | 1018.5 |
| 20260903070351 | 21 | 145 | 1.6 | 8.0 | 0.00 | 0.00 | 0.00 | 24 | 1018.6 |
| 20260903065845 | 21 | 286 | 1.6 | 11.3 | 0.00 | 0.00 | 0.00 | 24 | 1018.6 |
| 20260903065345 | 21 | 150 | 3.2 | 12.9 | 0.00 | 0.00 | 0.00 | 24 | 1018.5 |
| 20260903064844 | 21 | 101 | 3.2 | 12.9 | 0.00 | 0.00 | 0.00 | 23 | 1018.7 |
| 20260903064340 | 21 | 195 | 3.2 | 14.5 | 0.00 | 0.00 | 0.00 | 23 | 1018.7 |
| 20260903063836 | 21 | 144 | 0.0 | 9.7 | 0.00 | 0.00 | 0.00 | 23 | 1018.7 |
| 20260903063331 | 21 | 152 | 4.8 | 8.0 | 0.00 | 0.00 | 0.00 | 22 | 1018.6 |
| 20260903062826 | 21 | 198 | 6.4 | 11.3 | 0.00 | 0.00 | 0.00 | 21 | 1018.2 |
| 20260903062326 | 22 | 142 | 0.0 | 20.9 | 0.00 | 0.00 | 0.00 | 22 | 1018.1 |
| 20260903061822 | 21 | 203 | 8.0 | 24.1 | 0.00 | 0.00 | 0.00 | 23 | 1018.0 |
| 20260903061315 | 22 | 155 | 4.8 | 14.5 | 0.00 | 0.00 | 0.00 | 24 | 1018.0 |
| 20260903060812 | 22 | 173 | 6.4 | 8.0 | 0.00 | 0.00 | 0.00 | 24 | 1017.9 |
| 20260903060310 | 22 | 148 | 6.4 | 12.9 | 0.00 | 0.00 | 0.00 | 24 | 1017.9 |
| 20260903055808 | 22 | 191 | 6.4 | 20.9 | 0.00 | 0.00 | 0.00 | 25 | 1017.8 |
| 20260903055307 | 22 | 123 | 3.2 | 24.1 | 0.00 | 0.00 | 0.00 | 26 | 1017.9 |
| 20260903054802 | 22 | 270 | 6.4 | 9.7 | 0.00 | 0.00 | 0.00 | 26 | 1018.0 |
| 20260903054302 | 22 | 257 | 3.2 | 11.3 | 0.00 | 0.00 | 0.00 | 25 | 1018.0 |
| 20260903053759 | 22 | 153 | 6.4 | 19.3 | 0.00 | 0.00 | 0.00 | 25 | 1017.8 |
| 20260903053254 | 22 | 127 | 4.8 | 9.7 | 0.00 | 0.00 | 0.00 | 25 | 1017.7 |
| 20260903052749 | 22 | 146 | 9.7 | 11.3 | 0.00 | 0.00 | 0.00 | 25 | 1017.7 |
| 20260903052245 | 22 | 144 | 3.2 | 12.9 | 0.00 | 0.00 | 0.00 | 24 | 1018.0 |
| 20260903051740 | 22 | 111 | 4.8 | 14.5 | 0.00 | 0.00 | 0.00 | 25 | 1018.0 |
| 20260903051230 | 22 | 120 | 1.6 | 6.4 | 0.00 | 0.00 | 0.00 | 26 | 1017.9 |
| 20260903050726 | 22 | 139 | 3.2 | 16.1 | 0.00 | 0.00 | 0.00 | 26 | 1017.9 |
| 20260903050224 | 22 | 143 | 4.8 | 14.5 | 0.00 | 0.00 | 0.00 | 27 | 1017.8 |
| 20260903045720 | 22 | 126 | 8.0 | 29.0 | 0.00 | 0.00 | 0.00 | 25 | 1017.8 |
| 20260903045216 | 23 | 133 | 8.0 | 17.7 | 0.00 | 0.00 | 0.00 | 23 | 1018.1 |
| 20260903044712 | 22 | 180 | 0.0 | 16.1 | 0.00 | 0.00 | 0.00 | 25 | 1018.0 |
| 20260903044207 | 23 | 164 | 0.0 | 11.3 | 0.00 | 0.00 | 0.00 | 28 | 1018.1 |
| 20260903043704 | 23 | 166 | 6.4 | 14.5 | 0.00 | 0.00 | 0.00 | 24 | 1017.9 |
| 20260903043203 | 23 | 228 | 8.0 | 12.9 | 0.00 | 0.00 | 0.00 | 24 | 1017.9 |
| 20260903042702 | 23 | 240 | 4.8 | 20.9 | 0.00 | 0.00 | 0.00 | 25 | 1017.8 |
| 20260903042157 | 22 | 112 | 11.3 | 22.5 | 0.00 | 0.00 | 0.00 | 26 | 1017.8 |
| 20260903041654 | 23 | 130 | 4.8 | 11.3 | 0.00 | 0.00 | 0.00 | 28 | 1017.9 |
| 20260903041148 | 23 | 117 | 0.0 | 11.3 | 0.00 | 0.00 | 0.00 | 30 | 1017.8 |
| 20260903040648 | 23 | 119 | 9.7 | 12.9 | 0.00 | 0.00 | 0.00 | 25 | 1017.9 |
| 20260903040144 | 23 | 180 | 3.2 | 9.7 | 0.00 | 0.00 | 0.00 | 24 | 1017.7 |
| 20260903035639 | 23 | 128 | 3.2 | 14.5 | 0.00 | 0.00 | 0.00 | 24 | 1017.5 |
| 20260903035130 | 23 | 203 | 1.6 | 8.0 | 0.00 | 0.00 | 0.00 | 26 | 1017.7 |
| 20260903034630 | 23 | 128 | 8.0 | 9.7 | 0.00 | 0.00 | 0.00 | 27 | 1017.5 |
| 20260903034125 | 23 | 117 | 0.0 | 11.3 | 0.00 | 0.00 | 0.00 | 26 | 1017.7 |
| 20260903033620 | 23 | 180 | 1.6 | 11.3 | 0.00 | 0.00 | 0.00 | 28 | 1017.5 |
| 20260903033115 | 23 | 126 | 0.0 | 4.8 | 0.00 | 0.00 | 0.00 | 29 | 1017.5 |
| 20260903032610 | 23 | 180 | 1.6 | 4.8 | 0.00 | 0.00 | 0.00 | 28 | 1017.5 |
| 20260903032106 | 23 | 206 | 1.6 | 6.4 | 0.00 | 0.00 | 0.00 | 27 | 1017.4 |
| 20260903031606 | 23 | 180 | 0.0 | 8.0 | 0.00 | 0.00 | 0.00 | 26 | 1017.5 |
| 20260903031101 | 23 | 148 | 3.2 | 8.0 | 0.00 | 0.00 | 0.00 | 28 | 1017.3 |
| 20260903030556 | 23 | 148 | 3.2 | 4.8 | 0.00 | 0.00 | 0.00 | 29 | 1017.2 |
| 20260903030052 | 23 | 132 | 3.2 | 6.4 | 0.00 | 0.00 | 0.00 | 30 | 1017.5 |
| 20260903025547 | 23 | 128 | 3.2 | 9.7 | 0.00 | 0.00 | 0.00 | 30 | 1017.1 |
| 20260903025043 | 23 | 169 | 3.2 | 11.3 | 0.00 | 0.00 | 0.00 | 29 | 1017.2 |
| 20260903024542 | 23 | 258 | 3.2 | 11.3 | 0.00 | 0.00 | 0.00 | 28 | 1017.2 |
| 20260903024037 | 23 | 90 | 3.2 | 8.0 | 0.00 | 0.00 | 0.00 | 28 | 1017.1 |
| 20260903023533 | 24 | 114 | 9.7 | 14.5 | 0.00 | 0.00 | 0.00 | 26 | 1017.2 |
| 20260903023028 | 23 | 138 | 0.0 | 8.0 | 0.00 | 0.00 | 0.00 | 26 | 1017.1 |
| 20260903022527 | 23 | 77 | 3.2 | 8.0 | 0.00 | 0.00 | 0.00 | 27 | 1016.7 |
| 20260903022026 | 24 | 184 | 3.2 | 12.9 | 0.00 | 0.00 | 0.00 | 26 | 1016.9 |
| 20260903021521 | 23 | 117 | 4.8 | 8.0 | 0.00 | 0.00 | 0.00 | 26 | 1017.0 |
| 20260903021016 | 24 | 103 | 3.2 | 12.9 | 0.00 | 0.00 | 0.00 | 26 | 1016.7 |
| 20260903020512 | 24 | 173 | 1.6 | 6.4 | 0.00 | 0.00 | 0.00 | 25 | 1017.1 |
| 20260903020011 | 25 | 196 | 3.2 | 8.0 | 0.00 | 0.00 | 0.00 | 22 | 1016.9 |
| 20260903015507 | 25 | 180 | 4.8 | 11.3 | 0.00 | 0.00 | 0.00 | 22 | 1017.0 |
| 20260903015003 | 24 | 154 | 6.4 | 9.7 | 0.00 | 0.00 | 0.00 | 22 | 1017.1 |
| 20260903014501 | 25 | 229 | 6.4 | 6.4 | 0.00 | 0.00 | 0.00 | 23 | 1017.0 |
| 20260903013957 | 25 | 353 | 0.0 | 4.8 | 0.00 | 0.00 | 0.00 | 23 | 1017.0 |
| 20260903013456 | 25 | 216 | 4.8 | 11.3 | 0.00 | 0.00 | 0.00 | 23 | 1017.0 |
| 20260903012955 | 25 | 270 | 0.0 | 8.0 | 0.00 | 0.00 | 0.00 | 22 | 1017.1 |
| 20260903012454 | 25 | 213 | 3.2 | 4.8 | 0.00 | 0.00 | 0.00 | 21 | 1017.3 |
| 20260903011953 | 25 | 297 | 0.0 | 4.8 | 0.00 | 0.00 | 0.00 | 20 | 1017.0 |
| 20260903011448 | 25 | 135 | 4.8 | 6.4 | 0.00 | 0.00 | 0.00 | 20 | 1017.2 |
| 20260903010944 | 25 | 75 | 0.0 | 4.8 | 0.00 | 0.00 | 0.00 | 21 | 1017.3 |
| 20260903010439 | 25 | 252 | 4.8 | 8.0 | 0.00 | 0.00 | 0.00 | 19 | 1017.4 |
| 20260903005937 | 26 | 265 | 3.2 | 4.8 | 0.00 | 0.00 | 0.00 | 21 | 1017.3 |
| 20260903005432 | 26 | 265 | 3.2 | 4.8 | 0.00 | 0.00 | 0.00 | 19 | 1017.3 |
| 20260903004930 | 26 | 249 | 9.7 | 9.7 | 0.00 | 0.00 | 0.00 | 18 | 1017.4 |
| 20260903004429 | 26 | 206 | 4.8 | 9.7 | 0.00 | 0.00 | 0.00 | 18 | 1017.7 |
| 20260903003925 | 26 | 232 | 11.3 | 16.1 | 0.00 | 0.00 | 0.00 | 18 | 1017.5 |
| 20260903003425 | 26 | 209 | 1.6 | 11.3 | 0.00 | 0.00 | 0.00 | 17 | 1017.5 |
| 20260903002920 | 26 | 213 | 16.1 | 17.7 | 0.00 | 0.00 | 0.00 | 16 | 1017.4 |
| 20260903002415 | 26 | 98 | 1.6 | 14.5 | 0.00 | 0.00 | 0.00 | 17 | 1017.4 |
| 20260903001914 | 26 | 172 | 6.4 | 19.3 | 0.00 | 0.00 | 0.00 | 18 | 1017.7 |
| 20260903001409 | 27 | 283 | 1.6 | 11.3 | 0.00 | 0.00 | 0.00 | 21 | 1017.5 |
| 20260903000909 | 27 | 151 | 4.8 | 12.9 | 0.00 | 0.00 | 0.00 | 19 | 1017.9 |
| 20260903000404 | 28 | 230 | 9.7 | 9.7 | 0.00 | 0.00 | 0.00 | 18 | 1017.7 |
| 20260902235903 | 28 | 21 | 4.8 | 16.1 | 0.00 | 0.00 | 0.00 | 17 | 1017.5 |
| 20260902235358 | 28 | 240 | 4.8 | 11.3 | 0.00 | 0.00 | 0.00 | 17 | 1017.7 |
| 20260902234857 | 28 | 249 | 8.0 | 11.3 | 0.00 | 0.00 | 0.00 | 17 | 1017.5 |
| 20260902234357 | 27 | 229 | 8.0 | 11.3 | 0.00 | 0.00 | 0.00 | 18 | 1017.7 |
| 20260902233856 | 27 | 194 | 4.8 | 11.3 | 0.00 | 0.00 | 0.00 | 19 | 1017.7 |
| 20260902233351 | 27 | 260 | 12.9 | 12.9 | 0.00 | 0.00 | 0.00 | 18 | 1017.8 |
| 20260902232849 | 27 | 120 | 1.6 | 11.3 | 0.00 | 0.00 | 0.00 | 18 | 1017.7 |
| 20260902232344 | 27 | 168 | 4.8 | 14.5 | 0.00 | 0.00 | 0.00 | 17 | 1017.8 |
| 20260902231844 | 28 | 270 | 8.0 | 11.3 | 0.00 | 0.00 | 0.00 | 17 | 1017.9 |
| 20260902231339 | 28 | 232 | 6.4 | 20.9 | 0.00 | 0.00 | 0.00 | 16 | 1017.7 |
| 20260902230834 | 27 | 235 | 8.0 | 16.1 | 0.00 | 0.00 | 0.00 | 19 | 1018.1 |
| 20260902230334 | 28 | 225 | 8.0 | 12.9 | 0.00 | 0.00 | 0.00 | 17 | 1018.0 |
| 20260902225833 | 28 | 192 | 6.4 | 20.9 | 0.00 | 0.00 | 0.00 | 18 | 1018.0 |
| 20260902225329 | 28 | 231 | 17.7 | 17.7 | 0.00 | 0.00 | 0.00 | 18 | 1018.0 |
| 20260902224827 | 27 | 180 | 3.2 | 20.9 | 0.00 | 0.00 | 0.00 | 19 | 1018.0 |
| 20260902224322 | 28 | 148 | 3.2 | 24.1 | 0.00 | 0.00 | 0.00 | 20 | 1017.8 |
| 20260902223820 | 27 | 160 | 4.8 | 20.9 | 0.00 | 0.00 | 0.00 | 20 | 1017.9 |
| 20260902223319 | 27 | 152 | 0.0 | 19.3 | 0.00 | 0.00 | 0.00 | 18 | 1018.0 |
| 20260902222813 | 28 | 66 | 4.8 | 32.2 | 0.00 | 0.00 | 0.00 | 19 | 1017.5 |
| 20260902222312 | 28 | 244 | 9.7 | 20.9 | 0.00 | 0.00 | 0.00 | 19 | 1018.3 |
| 20260902221813 | 28 | 229 | 8.0 | 14.5 | 0.00 | 0.00 | 0.00 | 20 | 1018.0 |
| 20260902221312 | 28 | 147 | 6.4 | 14.5 | 0.00 | 0.00 | 0.00 | 20 | 1018.2 |
| 20260902220808 | 28 | 235 | 24.1 | 25.7 | 0.00 | 0.00 | 0.00 | 18 | 1018.2 |
| 20260902220307 | 28 | 219 | 11.3 | 24.1 | 0.00 | 0.00 | 0.00 | 19 | 1018.3 |
| 20260902215802 | 28 | 237 | 4.8 | 22.5 | 0.00 | 0.00 | 0.00 | 20 | 1018.6 |
| 20260902215257 | 28 | 248 | 4.8 | 22.5 | 0.00 | 0.00 | 0.00 | 19 | 1018.6 |
| 20260902214753 | 28 | 227 | 8.0 | 16.1 | 0.00 | 0.00 | 0.00 | 21 | 1018.6 |
| 20260902214252 | 28 | 225 | 0.0 | 19.3 | 0.00 | 0.00 | 0.00 | 21 | 1018.5 |
| 20260902213748 | 28 | 264 | 11.3 | 17.7 | 0.00 | 0.00 | 0.00 | 23 | 1018.6 |
| 20260902213248 | 27 | 229 | 8.0 | 17.7 | 0.00 | 0.00 | 0.00 | 22 | 1018.6 |
| 20260902212747 | 27 | 142 | 8.0 | 19.3 | 0.00 | 0.00 | 0.00 | 22 | 1018.7 |
| 20260902212244 | 27 | 247 | 8.0 | 17.7 | 0.00 | 0.00 | 0.00 | 25 | 1018.6 |
| 20260902211740 | 27 | 197 | 6.4 | 17.7 | 0.00 | 0.00 | 0.00 | 26 | 1018.6 |
| 20260902211236 | 27 | 157 | 4.8 | 16.1 | 0.00 | 0.00 | 0.00 | 30 | 1018.5 |
| 20260902210735 | 27 | 137 | 8.0 | 16.1 | 0.00 | 0.00 | 0.00 | 29 | 1018.7 |
| 20260902210230 | 27 | 133 | 4.8 | 14.5 | 0.00 | 0.00 | 0.00 | 26 | 1018.8 |
| 20260902205728 | 27 | 176 | 6.4 | 17.7 | 0.00 | 0.00 | 0.00 | 29 | 1018.9 |
| 20260902205224 | 26 | 278 | 6.4 | 16.1 | 0.00 | 0.00 | 0.00 | 27 | 1018.9 |
| 20260902204720 | 27 | 176 | 0.0 | 16.1 | 0.00 | 0.00 | 0.00 | 27 | 1018.7 |
| 20260902204215 | 27 | 209 | 8.0 | 12.9 | 0.00 | 0.00 | 0.00 | 26 | 1018.7 |
| 20260902203710 | 28 | 253 | 11.3 | 32.2 | 0.00 | 0.00 | 0.00 | 22 | 1019.0 |
| 20260902203209 | 27 | 232 | 11.3 | 12.9 | 0.00 | 0.00 | 0.00 | 24 | 1018.9 |
| 20260902202704 | 27 | 241 | 4.8 | 19.3 | 0.00 | 0.00 | 0.00 | 24 | 1018.8 |
| 20260902202201 | 28 | 132 | 6.4 | 8.0 | 0.00 | 0.00 | 0.00 | 27 | 1019.2 |
| 20260902201657 | 27 | 213 | 14.5 | 16.1 | 0.00 | 0.00 | 0.00 | 27 | 1019.2 |
| 20260902201156 | 27 | 147 | 6.4 | 20.9 | 0.00 | 0.00 | 0.00 | 27 | 1019.2 |
| 20260902200651 | 27 | 164 | 8.0 | 24.1 | 0.00 | 0.00 | 0.00 | 27 | 1019.2 |
| 20260902200147 | 27 | 214 | 14.5 | 22.5 | 0.00 | 0.00 | 0.00 | 27 | 1019.2 |
| 20260902195643 | 27 | 134 | 9.7 | 29.0 | 0.00 | 0.00 | 0.00 | 26 | 1019.3 |
| 20260902195142 | 27 | 139 | 8.0 | 16.1 | 0.00 | 0.00 | 0.00 | 24 | 1019.4 |
| 20260902194641 | 27 | 154 | 8.0 | 27.4 | 0.00 | 0.00 | 0.00 | 26 | 1019.7 |
| 20260902194136 | 27 | 270 | 0.0 | 17.7 | 0.00 | 0.00 | 0.00 | 30 | 1019.8 |
| 20260902193632 | 26 | 139 | 6.4 | 22.5 | 0.00 | 0.00 | 0.00 | 29 | 1019.6 |
| 20260902193132 | 26 | 133 | 9.7 | 25.7 | 0.00 | 0.00 | 0.00 | 26 | 1019.5 |
| 20260902192631 | 26 | 225 | 4.8 | 22.5 | 0.00 | 0.00 | 0.00 | 29 | 1019.7 |
| 20260902192130 | 26 | 215 | 1.6 | 20.9 | 0.00 | 0.00 | 0.00 | 31 | 1020.1 |
| 20260902191626 | 26 | 137 | 9.7 | 14.5 | 0.00 | 0.00 | 0.00 | 30 | 1020.3 |
| 20260902191125 | 26 | 229 | 8.0 | 22.5 | 0.00 | 0.00 | 0.00 | 31 | 1020.1 |
| 20260902190621 | 26 | 184 | 3.2 | 32.2 | 0.00 | 0.00 | 0.00 | 31 | 1020.0 |
| 20260902190116 | 26 | 220 | 3.2 | 19.3 | 0.00 | 0.00 | 0.00 | 30 | 1020.0 |
| 20260902185612 | 26 | 133 | 4.8 | 17.7 | 0.00 | 0.00 | 0.00 | 29 | 1020.0 |
| 20260902185107 | 26 | 169 | 3.2 | 16.1 | 0.00 | 0.00 | 0.00 | 30 | 1020.2 |
| 20260902184602 | 26 | 175 | 0.0 | 25.7 | 0.00 | 0.00 | 0.00 | 29 | 1020.2 |
| 20260902184057 | 26 | 256 | 9.7 | 17.7 | 0.00 | 0.00 | 0.00 | 30 | 1020.2 |
| 20260902183554 | 26 | 165 | 4.8 | 17.7 | 0.00 | 0.00 | 0.00 | 32 | 1020.5 |
| 20260902183050 | 25 | 221 | 19.3 | 32.2 | 0.00 | 0.00 | 0.00 | 33 | 1020.4 |
| 20260902182546 | 25 | 184 | 3.2 | 19.3 | 0.00 | 0.00 | 0.00 | 35 | 1020.4 |
| 20260902182042 | 26 | 150 | 9.7 | 24.1 | 0.00 | 0.00 | 0.00 | 32 | 1020.4 |
| 20260902181538 | 26 | 147 | 6.4 | 11.3 | 0.00 | 0.00 | 0.00 | 34 | 1020.5 |
| 20260902181037 | 26 | 235 | 9.7 | 22.5 | 0.00 | 0.00 | 0.00 | 36 | 1020.8 |
| 20260902180532 | 25 | 145 | 4.8 | 17.7 | 0.00 | 0.00 | 0.00 | 35 | 1020.5 |
| 20260902180028 | 25 | 253 | 9.7 | 20.9 | 0.00 | 0.00 | 0.00 | 34 | 1020.8 |
| 20260902175528 | 25 | 222 | 14.5 | 17.7 | 0.00 | 0.00 | 0.00 | 34 | 1020.8 |
| 20260902175024 | 25 | 156 | 8.0 | 17.7 | 0.00 | 0.00 | 0.00 | 34 | 1020.6 |
| 20260902174520 | 25 | 104 | 14.5 | 19.3 | 0.00 | 0.00 | 0.00 | 34 | 1021.0 |
| 20260902174015 | 24 | 357 | 4.8 | 17.7 | 0.00 | 0.00 | 0.00 | 38 | 1020.8 |
| 20260902173515 | 25 | 163 | 8.0 | 12.9 | 0.00 | 0.00 | 0.00 | 36 | 1020.8 |
| 20260902173010 | 25 | 143 | 9.7 | 29.0 | 0.00 | 0.00 | 0.00 | 35 | 1021.0 |
| 20260902172509 | 25 | 216 | 4.8 | 27.4 | 0.00 | 0.00 | 0.00 | 38 | 1021.0 |
| 20260902172005 | 25 | 207 | 9.7 | 38.6 | 0.00 | 0.00 | 0.00 | 40 | 1021.0 |
| 20260902171500 | 25 | 192 | 6.4 | 14.5 | 0.00 | 0.00 | 0.00 | 41 | 1021.1 |
| 20260902170956 | 25 | 177 | 14.5 | 17.7 | 0.00 | 0.00 | 0.00 | 39 | 1021.0 |
| 20260902170456 | 23 | 229 | 0.0 | 16.1 | 0.00 | 0.00 | 0.00 | 42 | 1020.9 |
| 20260902165952 | 24 | 319 | 3.2 | 25.7 | 0.00 | 0.00 | 0.00 | 42 | 1020.8 |